When you browse on this site, cookies collect data to enhance your experience and personalize the content and advertising you see.
Visit our Privacy Policy to learn more. By continuing to use the site, you agree to this use of cookies and data.

Hourly Weather Szestno

Today, 5 July, Sunday

Time Temperature Precipitation Wind Pressure Humidity
00:00 +18°C° 0.1 mm 4 mps 747 mmHg 83%
01:00 +19°C° 0 mm 4 mps 746 mmHg 76%
02:00 +18°C° 0.2 mm 4 mps 746 mmHg 79%
03:00 +18°C° 0.2 mm 3 mps 746 mmHg 83%
04:00 +17°C° 0.2 mm 3 mps 745 mmHg 87%
05:00 +17°C° 0.4 mm 3 mps 745 mmHg 89%
06:00 +17°C° 0.4 mm 3 mps 745 mmHg 92%
07:00 +17°C° 0.4 mm 3 mps 745 mmHg 95%
08:00 +19°C° 0.1 mm 4 mps 745 mmHg 89%
09:00 +21°C° 0.1 mm 5 mps 746 mmHg 82%
10:00 +22°C° 0.1 mm 6 mps 746 mmHg 76%
11:00 +23°C° 0.3 mm 6 mps 745 mmHg 76%
12:00 +23°C° 0.3 mm 6 mps 745 mmHg 77%
13:00 +23°C° 0.3 mm 6 mps 745 mmHg 77%
14:00 +23°C° 0.1 mm 6 mps 745 mmHg 77%
15:00 +23°C° 0.1 mm 6 mps 745 mmHg 77%
16:00 +23°C° 0.1 mm 6 mps 744 mmHg 77%
17:00 +23°C° 0 mm 5 mps 744 mmHg 80%
18:00 +22°C° 0 mm 4 mps 744 mmHg 82%
19:00 +22°C° 0 mm 4 mps 744 mmHg 84%
20:00 +21°C° 0.1 mm 4 mps 744 mmHg 86%
21:00 +21°C° 0.1 mm 4 mps 744 mmHg 88%
22:00 +20°C° 0.1 mm 4 mps 744 mmHg 90%
23:00 +20°C° 0 mm 4 mps 744 mmHg 91%

Tomorrow, 6 July, Monday

Time Temperature Precipitation Wind Pressure Humidity
00:00 +19°C° 0 mm 4 mps 744 mmHg 91%
01:00 +19°C° 0 mm 4 mps 744 mmHg 92%
02:00 +19°C° 0 mm 4 mps 744 mmHg 91%
03:00 +19°C° 0 mm 4 mps 743 mmHg 90%
04:00 +18°C° 0 mm 3 mps 743 mmHg 89%
05:00 +18°C° 0 mm 3 mps 743 mmHg 88%
06:00 +18°C° 0 mm 3 mps 743 mmHg 88%
07:00 +18°C° 0 mm 3 mps 743 mmHg 87%
08:00 +19°C° 0 mm 4 mps 743 mmHg 85%
09:00 +19°C° 0 mm 4 mps 743 mmHg 82%
10:00 +20°C° 0 mm 4 mps 743 mmHg 79%
11:00 +21°C° 0.1 mm 5 mps 743 mmHg 72%
12:00 +23°C° 0.1 mm 6 mps 743 mmHg 64%
13:00 +24°C° 0.1 mm 7 mps 743 mmHg 57%
14:00 +23°C° 0.1 mm 6 mps 743 mmHg 60%
15:00 +22°C° 0.1 mm 6 mps 743 mmHg 62%
16:00 +21°C° 0.1 mm 5 mps 743 mmHg 65%
17:00 +20°C° 0.1 mm 4 mps 744 mmHg 68%
18:00 +19°C° 0.1 mm 3 mps 744 mmHg 71%
19:00 +17°C° 0.1 mm 2 mps 744 mmHg 74%
20:00 +16°C° 0 mm 3 mps 744 mmHg 75%
21:00 +14°C° 0 mm 3 mps 744 mmHg 76%
22:00 +13°C° 0 mm 3 mps 745 mmHg 77%
23:00 +12°C° 0 mm 3 mps 745 mmHg 79%

Day after tomorrow, 7 July, Tuesday

Time Temperature Precipitation Wind Pressure Humidity
00:00 +12°C° 0 mm 3 mps 745 mmHg 81%
01:00 +11°C° 0 mm 3 mps 746 mmHg 82%
02:00 +11°C° 0 mm 3 mps 746 mmHg 84%
03:00 +11°C° 0 mm 3 mps 746 mmHg 85%
04:00 +11°C° 0 mm 3 mps 746 mmHg 86%
05:00 +12°C° 0 mm 4 mps 746 mmHg 83%
06:00 +13°C° 0 mm 4 mps 747 mmHg 80%
07:00 +14°C° 0 mm 5 mps 747 mmHg 77%
08:00 +15°C° 0 mm 5 mps 747 mmHg 73%
09:00 +16°C° 0 mm 5 mps 748 mmHg 69%
10:00 +16°C° 0 mm 5 mps 748 mmHg 64%
11:00 +16°C° 0.1 mm 5 mps 748 mmHg 65%
12:00 +16°C° 0.1 mm 5 mps 748 mmHg 65%
13:00 +16°C° 0.1 mm 5 mps 748 mmHg 66%
14:00 +16°C° 0.1 mm 5 mps 748 mmHg 66%
15:00 +16°C° 0.1 mm 5 mps 748 mmHg 67%
16:00 +16°C° 0.1 mm 5 mps 748 mmHg 68%
17:00 +15°C° 0 mm 4 mps 748 mmHg 71%
18:00 +14°C° 0 mm 3 mps 748 mmHg 75%
19:00 +13°C° 0 mm 3 mps 749 mmHg 78%
20:00 +13°C° 0 mm 2 mps 749 mmHg 82%
21:00 +12°C° 0 mm 2 mps 749 mmHg 86%
22:00 +10°C° 0 mm 2 mps 749 mmHg 89%
23:00 +9°C° 0 mm 2 mps 749 mmHg 90%

8 July, Wednesday

Time Temperature Precipitation Wind Pressure Humidity
00:00 +9°C° 0 mm 2 mps 749 mmHg 91%
01:00 +9°C° 0 mm 2 mps 749 mmHg 92%
02:00 +9°C° 0 mm 2 mps 749 mmHg 91%
03:00 +9°C° 0 mm 3 mps 749 mmHg 91%
04:00 +9°C° 0 mm 3 mps 749 mmHg 90%
05:00 +10°C° 0 mm 3 mps 749 mmHg 84%
06:00 +12°C° 0 mm 4 mps 749 mmHg 78%
07:00 +14°C° 0 mm 4 mps 748 mmHg 73%
08:00 +15°C° 0 mm 4 mps 749 mmHg 69%
09:00 +17°C° 0 mm 4 mps 749 mmHg 64%
10:00 +17°C° 0 mm 5 mps 749 mmHg 60%
11:00 +17°C° 0.1 mm 4 mps 748 mmHg 64%
12:00 +17°C° 0.1 mm 4 mps 748 mmHg 69%
13:00 +15°C° 0.1 mm 4 mps 748 mmHg 73%
14:00 +15°C° 0 mm 4 mps 748 mmHg 75%
15:00 +14°C° 0 mm 4 mps 748 mmHg 77%
16:00 +14°C° 0 mm 4 mps 748 mmHg 79%
17:00 +13°C° 0.2 mm 3 mps 748 mmHg 84%
18:00 +13°C° 0.2 mm 3 mps 748 mmHg 88%
19:00 +12°C° 0.2 mm 3 mps 748 mmHg 93%
20:00 +13°C° 0 mm 2 mps 748 mmHg 94%
21:00 +12°C° 0 mm 2 mps 748 mmHg 95%
22:00 +12°C° 0 mm 2 mps 748 mmHg 97%
23:00 +12°C° 0 mm 2 mps 748 mmHg 97%

9 July, Thursday

Time Temperature Precipitation Wind Pressure Humidity
00:00 +12°C° 0 mm 2 mps 748 mmHg 97%
01:00 +12°C° 0 mm 2 mps 748 mmHg 98%
02:00 +12°C° 0 mm 2 mps 748 mmHg 98%
03:00 +12°C° 0 mm 2 mps 749 mmHg 98%
04:00 +12°C° 0 mm 2 mps 749 mmHg 98%
05:00 +13°C° 0 mm 2 mps 749 mmHg 95%
06:00 +14°C° 0 mm 2 mps 749 mmHg 91%
07:00 +15°C° 0 mm 2 mps 750 mmHg 88%
08:00 +16°C° 0.1 mm 3 mps 750 mmHg 83%
09:00 +17°C° 0.1 mm 3 mps 750 mmHg 77%
10:00 +18°C° 0.1 mm 3 mps 751 mmHg 71%
11:00 +19°C° 0.2 mm 4 mps 751 mmHg 69%
12:00 +19°C° 0.2 mm 4 mps 751 mmHg 66%
13:00 +20°C° 0.2 mm 4 mps 751 mmHg 64%
14:00 +20°C° 0.1 mm 4 mps 751 mmHg 65%
15:00 +20°C° 0.1 mm 4 mps 751 mmHg 66%
16:00 +20°C° 0.1 mm 4 mps 751 mmHg 67%
17:00 +18°C° 0.1 mm 3 mps 751 mmHg 72%
18:00 +17°C° 0.1 mm 3 mps 751 mmHg 78%
19:00 +16°C° 0.1 mm 2 mps 751 mmHg 84%
20:00 +14°C° 0 mm 2 mps 752 mmHg 87%
21:00 +13°C° 0 mm 2 mps 752 mmHg 90%
22:00 +12°C° 0 mm 1 mps 752 mmHg 93%
23:00 +11°C° 0 mm 1 mps 752 mmHg 92%

10 July, Friday

Time Temperature Precipitation Wind Pressure Humidity
00:00 +11°C° 0 mm 1 mps 752 mmHg 92%
01:00 +9°C° 0 mm 0 mps 752 mmHg 91%
02:00 +9°C° 0 mm 0 mps 752 mmHg 92%
03:00 +9°C° 0 mm 0 mps 752 mmHg 92%
04:00 +10°C° 0 mm 1 mps 752 mmHg 92%
05:00 +12°C° 0 mm 1 mps 752 mmHg 87%
06:00 +14°C° 0 mm 1 mps 752 mmHg 83%
07:00 +16°C° 0 mm 2 mps 752 mmHg 78%
08:00 +17°C° 0 mm 2 mps 752 mmHg 72%
09:00 +19°C° 0 mm 2 mps 752 mmHg 65%
10:00 +20°C° 0 mm 3 mps 752 mmHg 59%
11:00 +21°C° 0 mm 3 mps 752 mmHg 56%
12:00 +22°C° 0 mm 3 mps 751 mmHg 53%
13:00 +24°C° 0 mm 3 mps 751 mmHg 50%
14:00 +24°C° 0 mm 3 mps 751 mmHg 52%
15:00 +24°C° 0 mm 3 mps 750 mmHg 54%
16:00 +24°C° 0 mm 3 mps 750 mmHg 55%
17:00 +22°C° 0 mm 3 mps 750 mmHg 62%
18:00 +20°C° 0 mm 3 mps 750 mmHg 68%
19:00 +19°C° 0 mm 2 mps 749 mmHg 74%
20:00 +18°C° 0 mm 3 mps 749 mmHg 77%
21:00 +17°C° 0 mm 3 mps 749 mmHg 81%
22:00 +16°C° 0 mm 3 mps 749 mmHg 84%
23:00 +15°C° 0 mm 4 mps 749 mmHg 84%
Show more